FENGYUN 1C DEB

Satellite information

Favourite Embed

Satellite Type and Status

DEBRISIN ORBIT

Key statistics

Satellite FENGYUN 1C DEB at a glance.

Uptime

9615

Days in orbit

Revolutions

≈ 14.1

Per day

Orbit

SSO

Sun Synchronous Orbit

Inclination

99.1

Latest

Satellite identification and parameters

Extended collection of information and parameters for FENGYUN 1C DEB.

Object identification

Identified? True

Debris? True

Object name: FENGYUN 1C DEB

International designator: 1999-025DRD

Object number (NORAD): 35245

Object ID (CCSDS): 35245

Country: PEOPLES REPUBLIC OF CHINA (PRC)

Current information (Y/N): Y

RCS size: SMALL

Orbital parameters

Period: 101.966 minutes

Inclination: 99.0875 deg

SMA: 7229.879 km

Apoapsis: 896.068 km

Periapsis: 807.42 km

RAAN: 330.6169 deg

Eccentricy: 0.00613072

Argument of periapsis: 192.6359 deg

Mean anomaly: 179.9573 deg

Mean motion: 14.12232597 rev/day

Mean motion (dot): 0.00006077 rev/day2

B* drag term: 0.0032697372 1/REarth

Two-line elements (TLE)

Creation date: Sept. 4, 2025, 4:29 a.m.

Reference frame: TEME

Reference center: EARTH

Epoch: Sept. 3, 2025, 12:21 p.m. UTC

TLE line 0: 0 FENGYUN 1C DEB

TLE line 1: 1 35245U 99025DRD 25246.51459729 .00006077 00000-0 32697-2 0 9994

TLE line 2: 2 35245 99.0875 330.6169 0061307 192.6359 179.9573 14.12232597863621

Live tracking on map

Real-time ground track for satellite FENGYUN 1C DEB.

In-orbit conjunctions

A list of the most updated potential collisions computed for object FENGYUN 1C DEB.

Target Orbit TCA Probability of collision Miss distance Type
CZ-6A DEB LEO 2025-02-19 08:12:49 0.0002564546 213.0 (m) DEBRIS
FENGYUN 1C DEB SSO 2024-11-15 03:28:41 0.0004937482 739.0 (m) DEBRIS
COSMOS 2251 DEB LEO 2024-11-14 08:24:29 0.0003331024 282.0 (m) DEBRIS

Associated space launch

Chinese polar orbiting meteorological satellite

FENGYUN 1C DEB was lifted into orbit during the mission ‘Long March 4B | Feng Yun 1C’, on board a Long March 4B space rocket.

The launch took place on May 10, 1999, 1:33 a.m. from Launch Complex 7.

For more information about the launch, click the button.

Launch to space Long March 4B | Feng Yun 1C
Long March 4B | Feng Yun 1C

Agency: N/A

Status: Launch Successful

Launch date: May 10, 1999, 1:33 a.m. UTC

Rocket: Long March 4B

Launch pad: Launch Complex 7

Location: Taiyuan Satellite Launch Center, People's Republic of China

...

Latest news about this satellite

There are no fresh news available about this satellite. Check back as we update our databases every day.


Newsletter sign-up

Weekly statistics, charts and insights to help you stay on top of the space industry.